Powrót do katalogu

DMC 2

AktywnyNaukaSSO
NORAD 35683·PAYLOAD·🇬🇧 United Kingdom

Wystrzelony Jul 29, 2009 z Baikonur Cosmodrome

Loading…

Następne Przeloty (najbliższe 24 godziny)

TLE

ŚwieżeSource: Space-Track

Epoka: Sep 14, 2026, 13:39 UTC

1 35683U 09041C   26257.56944396  .00000468  00000-0  74998-4 0  9996
2 35683  97.8965  30.4187 0001233  68.5963 291.5378 14.76140395919756

Śledź DMC 2 w czasie rzeczywistym z AllMySat

Download on the App Store